Terug naar catalogus

NOAA 16 DEB

ActiefPO
NORAD 42413·DEBRIS·🇺🇸 United States

Gelanceerd Sep 21, 2000 vanaf Vandenberg Space Force Base

Loading…

Volgende Passages (komende 24 uur)

TLE

VersSource: Space-Track

Epoch: Sep 13, 2026, 17:57 UTC

1 42413U 00055TH  26256.74854086  .00004275  00000-0  11402-2 0  9995
2 42413  98.9476  72.6515 0020388 211.1176 148.8809 14.48862368548314

Volg NOAA 16 DEB in realtime met AllMySat

Download on the App Store